Location: *
(51.1248°S, 108.4023°W)
Time: 20:35:23
(UTC+00:00)

Cosmos 2278 Rocket - Pass Details

Date: 23 October 2021
Orbit: 841 x 845 km, 71.0° (Epoch: 30 November)

Event Time Altitude Azimuth Distance (km) Brightness Sun altitude
Exits shadow 08:28:51 24° 265° (W) 1,704 3.6 -24.3°
Maximum altitude 08:31:11 32° 225° (SW) 1,428 3.5 -24.2°
Drops below altitude 10° 08:36:19 10° 161° (SSE) 2,499 5.7 -23.8°
Sets 08:39:03 0° 151° (SSE) 3,439 6.8 -23.6°
